User: anonymous   Login
Location: İstanbul
(41.0082°N, 28.9784°E)
Time: 01:43:23
(UTC+03:00)
Language:

ESTCUBE 1 - Orbit

View from above orbital plane
View from above orbital plane
View from above satellite
View from above satellite

Ground track
Ground track

The orbit data is extracted from the following two-line orbital elements,

1 39161U 13021C   24115.11659141  .00005105  00000-0  74728-3 0  9990
2 39161  97.8316 183.2334 0009831  52.6640 307.5464 14.76026168589152
Epoch (UTC): 24 April 2024 02:47:53
Eccentricity: 0.0009831
inclination: 97.8316°
perigee height: 635 km
apogee height: 649 km
right ascension of ascending node: 183.2334°
argument of perigee: 52.6640°
revolutions per day: 14.76026168
mean anomaly at epoch: 307.5464°
orbit number at epoch: 58915

The dashed part of the orbit path shows where the satellite is in the earth's shadow,  

DLR